[Iaude] MPEC O45: 2016 RP105 [a=46.61,e=0.11,i=7.9,H=9.1]
    mpec at cfa.harvard.edu 
    mpec at cfa.harvard.edu
       
    Thu Jul 25 11:57:44 EDT 2024
    
    
  
M.P.E.C. 2024-O45                                 Issued 2024 July 25, 15:56 UT
     The Minor Planet Electronic Circulars contain information on unusual
         minor planets, routine data on comets and natural satellites,
         and occasional editorial announcements.  They are published
    on behalf of Division F of the International Astronomical Union by the
          Minor Planet Center, Smithsonian Astrophysical Observatory,
                          Cambridge, MA 02138, U.S.A.
			  
             Prepared using the Tamkin Foundation Computer Network
                              MPC at CFA.HARVARD.EDU
            URL https://www.minorplanetcenter.net/    ISSN 1523-6714
                                   2016 RP105                                   
Observations:
     K16RA5P 1C2016 07 07.60843923 30 45.63 +01 56 03.3                WEO045T09
     K16RA5P 1C2016 08 01.49229123 29 54.58 +01 52 21.1                WEO045T09
     K16RA5P 1C2016 08 01.52752923 29 54.46 +01 52 20.9                WEO045T09
     K16RA5P 1C2016 08 01.55199223 29 54.39 +01 52 20.3                WEO045T09
     K16RA5P 1C2016 08 28.39120323 28 20.46 +01 43 10.1                WEO045T09
     K16RA5P 4C2016 08 28.39121 23 28 20.45 +01 43 10.2          25.6 g1EO045T09
     K16RA5P 4C2016 08 28.40042 23 28 20.41 +01 43 09.9          25.8 g1EO045T09
     K16RA5P 4C2016 08 28.41778 23 28 20.34 +01 43 09.2          25.5 g1EO045T09
     K16RA5P 1C2016 09 05.34432923 27 48.08 +01 39 42.2                WEO045T09
     K16RA5P 1C2016 09 05.40999123 27 47.80 +01 39 40.5                WEO045T09
     K16RA5P*4C2016 09 07.38805 23 27 39.58 +01 38 46.5          25.4 r1EO045T09
     K16RA5P 4C2016 09 07.41191 23 27 39.49 +01 38 45.8          25.6 r1EO045T09
     K16RA5P 4C2016 09 07.45841 23 27 39.30 +01 38 45.0          25.6 r1EO045T09
     K16RA5P 4C2016 09 07.48918 23 27 39.15 +01 38 43.8          25.7 r1EO045T09
     K16RA5P 1C2017 06 24.52546623 35 40.21 +02 17 16.9                WEO045T09
     K16RA5P 1C2017 06 24.57446523 35 40.19 +02 17 17.4                WEO045T09
     K16RA5P 1C2019 09 27.36817823 40 57.73 +02 35 27.4                WEO045T09
     K16RA5P 1C2019 09 27.46155123 40 57.33 +02 35 24.6                WEO045T09
Observer details:
T09 Subaru Telescope, Maunakea.  Observers , H. Aihara, Y. AlSayyad, M. Ando,
    R. Armstrong, J. Bosch, E. Egami, H. Furusawa, J. Furusawa, S. Harasawa,
    Y. Harikane, B.-C. Hsieh, H. Ikeda, K. Ito, I. Iwata, T. Kodama, M. Koike,
    M. Kokubo, Y. Komiyama, X. Li, Y. Liang, Y.-T. Lin, R. H. Lupton, N. B.
    Lust, L. A. MacArthur, K. Mawatari, S. Mineo, H. Miyatake, S. Miyazaki, S.
    More, T. Morishima, H. Murayama, K. Nakajima, F. Nakata, A. J. Nishizawa,
    M. Oguri, N. Okabe, Y. Okura, Y. Ono, K. Osato, M. Ouchi, Y.-C. Pan, A. A.
    Plazas Malagon, P. A. Price, S. L. Reed, E. S. Rykoff, T. Shibuya, M.
    Simunovic, M. A. Strauss, K. Sugimori, Y. Suto, N. Suzuki, M. Takada, Y.
    Takagi, T. Takata, S. Takita, M. Tanaka, S. Tang, D. S. Taranu, T. Terai,
    Y. Toba, E. L. Turner, H. Uchiyama, B. Vijarnwannaluk, C. Z. Waters, Y.
    Yamada, N. Yamamoto, T. Yamashita.  Measurers S. Deen, A. Yamauchi, H.
    Fukuyama.  8.3-m Subaru Telescope + CCD, 8.2-m f/2.0 reflector + CCD(HSC).
Orbital elements:
2016 RP105                                                                      
Epoch 2024 Oct. 17.0 TT = JDT 2460600.5                 Alexandersen            
M 309.54209              (2000.0)            P               Q                  
n   0.00309732     Peri.  216.17569     +0.43254930     -0.89922007             
a  46.6099819      Node   208.36548     +0.85624733     +0.43248813             
e   0.1147253      Incl.    7.93758     +0.28238557     +0.06600973             
P 318              H    9.12          G   0.15           U   5                  
Residuals in seconds of arc
160707 T09  0.1+  0.3-    160828 T09  0.1-  0.1+    160907 T09  0.2+  0.3+
160801 T09  0.1+  0.0     160828 T09  0.1-  0.2-    160907 T09  0.1-  0.1-
160801 T09  0.1-  0.3+    160905 T09  0.1+  0.1-    170624 T09  0.1+  0.1-
160801 T09  0.1-  0.1+    160905 T09  0.1+  0.0     170624 T09  0.1-  0.1+
160828 T09  0.1+  0.0     160907 T09  0.1-  0.1-    190927 T09  0.0   0.0
160828 T09  0.1-  0.2+    160907 T09  0.1+  0.2-    190927 T09  0.0   0.0
Ephemeris:
2016 RP105               a,e,i = 46.61, 0.11, 8                  q = 41.2626
Date    TT    R. A. (2000) Decl.     Delta      r    Elong.  Phase     V
2024 06 25    00 09 45.8 +04 48 31  43.6392 43.6414    89.5     1.3    25.7
...
2024 07 10    00 09 47.7 +04 49 35  43.3853 43.6375   103.7     1.3    25.7
...
2024 07 18    00 09 41.2 +04 49 20  43.2551 43.6355   111.4     1.2    25.7
...
2024 07 24    00 09 33.1 +04 48 45  43.1618 43.6340   117.1     1.2    25.7
2024 07 25    00 09 31.5 +04 48 38  43.1466 43.6337   118.1     1.2    25.7
2024 07 26    00 09 29.8 +04 48 30  43.1316 43.6334   119.0     1.2    25.7
...
2024 08 01    00 09 18.1 +04 47 31  43.0447 43.6319   124.8     1.1    25.7
...
2024 08 09    00 08 58.6 +04 45 44  42.9382 43.6299   132.5     1.0    25.6
...
2024 08 24    00 08 11.8 +04 41 05  42.7739 43.6260   147.1     0.7    25.6
M. P. C. Staff               (C) Copyright 2024 MPC           M.P.E.C. 2024-O45
    
    
More information about the Iaude
mailing list